When you browse on this site, cookies collect data to enhance your experience and personalize the content and advertising you see.
Visit our Privacy Policy to learn more. By continuing to use the site, you agree to this use of cookies and data.
  • In Slovakia
  • List of Countries
  • For 7 days
  • Water Temperature
  • Satellite Maps
  • Weather Map
  • Weather Widgets
  • user-avatar
    Login

    Hourly Weather Kapan

    Today, 22 January, Tuesday

    Time Temperature Precipitation Wind Pressure Humidity
    00:00 0°C° 0 mm 3 mps 685 mmHg 45%
    01:00 0°C° 0 mm 3 mps 685 mmHg 45%
    02:00 -1°C° 0 mm 3 mps 684 mmHg 46%
    03:00 -1°C° 0 mm 4 mps 684 mmHg 41%
    04:00 0°C° 0 mm 3 mps 684 mmHg 42%
    05:00 0°C° 0 mm 3 mps 684 mmHg 42%
    06:00 -1°C° 0 mm 3 mps 684 mmHg 43%
    07:00 0°C° 0 mm 3 mps 684 mmHg 42%
    08:00 +1°C° 0 mm 3 mps 684 mmHg 40%
    09:00 +3°C° 0 mm 3 mps 684 mmHg 38%
    10:00 +4°C° 0 mm 3 mps 684 mmHg 37%
    11:00 +5°C° 0 mm 3 mps 684 mmHg 35%
    12:00 +8°C° 0 mm 3 mps 684 mmHg 33%
    13:00 +8°C° 0 mm 3 mps 684 mmHg 34%
    14:00 +8°C° 0 mm 3 mps 684 mmHg 35%
    15:00 +8°C° 0 mm 3 mps 684 mmHg 35%
    16:00 +6°C° 0 mm 2 mps 684 mmHg 39%
    17:00 +5°C° 0 mm 2 mps 684 mmHg 42%
    18:00 +3°C° 0 mm 2 mps 684 mmHg 46%
    19:00 +3°C° 0 mm 2 mps 684 mmHg 46%
    20:00 +3°C° 0 mm 2 mps 684 mmHg 46%
    21:00 +2°C° 0 mm 2 mps 684 mmHg 46%
    22:00 +2°C° 0 mm 2 mps 684 mmHg 46%
    23:00 +2°C° 0 mm 2 mps 684 mmHg 46%

    Tomorrow, 23 January, Wednesday

    Time Temperature Precipitation Wind Pressure Humidity
    00:00 +1°C° 0 mm 2 mps 685 mmHg 46%
    01:00 +1°C° 0 mm 2 mps 685 mmHg 47%
    02:00 +1°C° 0 mm 2 mps 685 mmHg 47%
    03:00 +1°C° 0 mm 2 mps 685 mmHg 48%
    04:00 +1°C° 0 mm 2 mps 685 mmHg 49%
    05:00 +1°C° 0 mm 2 mps 685 mmHg 49%
    06:00 -1°C° 0 mm 2 mps 685 mmHg 50%
    07:00 +2°C° 0 mm 1 mps 686 mmHg 48%
    08:00 +3°C° 0 mm 1 mps 686 mmHg 47%
    09:00 +4°C° 0 mm 1 mps 687 mmHg 45%
    10:00 +6°C° 0 mm 1 mps 686 mmHg 43%
    11:00 +7°C° 0 mm 1 mps 686 mmHg 41%
    12:00 +7°C° 0 mm 2 mps 686 mmHg 40%
    13:00 +7°C° 0 mm 2 mps 686 mmHg 40%
    14:00 +7°C° 0 mm 2 mps 686 mmHg 41%
    15:00 +7°C° 0 mm 2 mps 686 mmHg 42%
    16:00 +6°C° 0 mm 2 mps 686 mmHg 47%
    17:00 +5°C° 0 mm 1 mps 686 mmHg 51%
    18:00 +4°C° 0 mm 1 mps 686 mmHg 56%
    19:00 +4°C° 0 mm 1 mps 686 mmHg 56%
    20:00 +3°C° 0 mm 1 mps 686 mmHg 56%
    21:00 +2°C° 0 mm 2 mps 686 mmHg 56%
    22:00 +2°C° 0 mm 2 mps 686 mmHg 56%
    23:00 +2°C° 0 mm 2 mps 686 mmHg 56%

    Day after tomorrow, 24 January, Thursday

    Time Temperature Precipitation Wind Pressure Humidity
    00:00 +2°C° 0 mm 2 mps 686 mmHg 55%
    01:00 +2°C° 0 mm 2 mps 686 mmHg 56%
    02:00 +2°C° 0 mm 2 mps 686 mmHg 56%
    03:00 +2°C° 0 mm 2 mps 686 mmHg 56%
    04:00 +1°C° 0 mm 2 mps 686 mmHg 56%
    05:00 +1°C° 0 mm 2 mps 686 mmHg 56%
    06:00 +1°C° 0 mm 2 mps 686 mmHg 57%
    07:00 +2°C° 0 mm 2 mps 687 mmHg 54%
    08:00 +3°C° 0 mm 2 mps 687 mmHg 52%
    09:00 +5°C° 0 mm 2 mps 687 mmHg 49%
    10:00 +6°C° 0 mm 2 mps 687 mmHg 47%
    11:00 +7°C° 0 mm 2 mps 687 mmHg 44%
    12:00 +9°C° 0 mm 2 mps 687 mmHg 41%
    13:00 +9°C° 0 mm 2 mps 686 mmHg 41%
    14:00 +9°C° 0 mm 2 mps 686 mmHg 41%
    15:00 +9°C° 0 mm 2 mps 686 mmHg 41%
    16:00 +8°C° 0 mm 2 mps 686 mmHg 46%
    17:00 +6°C° 0 mm 2 mps 686 mmHg 51%
    18:00 +5°C° 0 mm 2 mps 686 mmHg 55%
    19:00 +4°C° 0 mm 2 mps 685 mmHg 53%
    20:00 +4°C° 0 mm 2 mps 685 mmHg 51%
    21:00 +3°C° 0 mm 3 mps 685 mmHg 49%
    22:00 +3°C° 0 mm 3 mps 685 mmHg 48%
    23:00 +3°C° 0 mm 3 mps 685 mmHg 48%

    25 January, Friday

    Time Temperature Precipitation Wind Pressure Humidity
    00:00 +3°C° 0 mm 3 mps 685 mmHg 47%
    01:00 +3°C° 0 mm 3 mps 685 mmHg 48%
    02:00 +3°C° 0 mm 3 mps 684 mmHg 48%
    03:00 +3°C° 0 mm 3 mps 684 mmHg 48%
    04:00 +4°C° 0 mm 3 mps 684 mmHg 49%
    05:00 +4°C° 0 mm 3 mps 684 mmHg 49%
    06:00 +4°C° 0 mm 3 mps 683 mmHg 50%
    07:00 +5°C° 0 mm 3 mps 684 mmHg 49%
    08:00 +5°C° 0 mm 3 mps 684 mmHg 49%
    09:00 +7°C° 0 mm 3 mps 684 mmHg 48%
    10:00 +8°C° 0.1 mm 3 mps 684 mmHg 48%
    11:00 +9°C° 0.1 mm 3 mps 684 mmHg 48%
    12:00 +10°C° 0.1 mm 3 mps 684 mmHg 48%
    13:00 +10°C° 0 mm 3 mps 684 mmHg 47%
    14:00 +10°C° 0 mm 3 mps 683 mmHg 47%
    15:00 +11°C° 0 mm 3 mps 683 mmHg 47%
    16:00 +9°C° 0 mm 3 mps 683 mmHg 50%
    17:00 +8°C° 0 mm 3 mps 683 mmHg 53%
    18:00 +5°C° 0 mm 4 mps 683 mmHg 57%
    19:00 +5°C° 0 mm 3 mps 683 mmHg 57%
    20:00 +5°C° 0 mm 3 mps 684 mmHg 57%
    21:00 +4°C° 0 mm 3 mps 684 mmHg 56%
    22:00 +4°C° 0 mm 3 mps 684 mmHg 56%
    23:00 +4°C° 0 mm 3 mps 684 mmHg 56%

    26 January, Saturday

    Time Temperature Precipitation Wind Pressure Humidity
    00:00 +4°C° 0 mm 3 mps 684 mmHg 55%
    01:00 +4°C° 0 mm 3 mps 683 mmHg 55%
    02:00 +4°C° 0 mm 3 mps 683 mmHg 54%
    03:00 +4°C° 0 mm 3 mps 683 mmHg 54%
    04:00 +4°C° 0 mm 3 mps 683 mmHg 54%
    05:00 +4°C° 0 mm 3 mps 683 mmHg 54%
    06:00 +4°C° 0 mm 3 mps 683 mmHg 54%
    07:00 +5°C° 0 mm 3 mps 683 mmHg 53%
    08:00 +7°C° 0 mm 3 mps 683 mmHg 51%
    09:00 +8°C° 0 mm 3 mps 683 mmHg 49%
    10:00 +9°C° 0 mm 3 mps 683 mmHg 46%
    11:00 +11°C° 0 mm 3 mps 683 mmHg 43%
    12:00 +12°C° 0 mm 4 mps 683 mmHg 40%
    13:00 +13°C° 0 mm 4 mps 683 mmHg 40%
    14:00 +13°C° 0 mm 4 mps 682 mmHg 40%
    15:00 +13°C° 0 mm 4 mps 682 mmHg 40%
    16:00 +11°C° 0 mm 3 mps 682 mmHg 45%
    17:00 +10°C° 0 mm 3 mps 682 mmHg 49%
    18:00 +8°C° 0 mm 3 mps 681 mmHg 53%
    19:00 +8°C° 0 mm 3 mps 681 mmHg 54%
    20:00 +8°C° 0 mm 3 mps 681 mmHg 55%
    21:00 +8°C° 0 mm 3 mps 681 mmHg 56%
    22:00 +8°C° 0 mm 3 mps 680 mmHg 58%
    23:00 +8°C° 0 mm 3 mps 680 mmHg 60%

    27 January, Sunday

    Time Temperature Precipitation Wind Pressure Humidity
    00:00 +8°C° 0 mm 3 mps 680 mmHg 62%
    01:00 +8°C° 0.1 mm 3 mps 680 mmHg 63%
    02:00 +8°C° 0.1 mm 3 mps 680 mmHg 65%
    03:00 +8°C° 0.1 mm 2 mps 679 mmHg 66%
    04:00 +8°C° 0 mm 3 mps 679 mmHg 67%
    05:00 +8°C° 0 mm 3 mps 679 mmHg 68%
    06:00 +7°C° 0 mm 3 mps 679 mmHg 69%
    07:00 +8°C° 0 mm 2 mps 679 mmHg 66%
    08:00 +9°C° 0 mm 2 mps 680 mmHg 63%
    09:00 +10°C° 0 mm 2 mps 680 mmHg 61%
    10:00 +13°C° 0 mm 2 mps 680 mmHg 58%
    11:00 +13°C° 0 mm 3 mps 680 mmHg 55%
    12:00 +14°C° 0 mm 3 mps 679 mmHg 53%
    13:00 +14°C° 0 mm 3 mps 679 mmHg 51%
    14:00 +14°C° 0 mm 3 mps 679 mmHg 49%
    15:00 +16°C° 0 mm 3 mps 678 mmHg 47%
    16:00 +13°C° 0 mm 3 mps 678 mmHg 51%
    17:00 +11°C° 0 mm 3 mps 678 mmHg 55%
    18:00 +10°C° 0 mm 2 mps 678 mmHg 58%
    19:00 +9°C° 0 mm 2 mps 678 mmHg 58%
    20:00 +9°C° 0 mm 2 mps 678 mmHg 58%
    21:00 +8°C° 0 mm 3 mps 678 mmHg 58%
    22:00 +8°C° 0 mm 3 mps 678 mmHg 59%
    23:00 +8°C° 0 mm 3 mps 678 mmHg 60%
    Show more